Location: Conflandey
(47.7287°N, 6.0456°E)
Time: 20:58:45
(UTC+00:00)

NOSS 3-1 (C) - Pass Details

Date: 24 October 2021
Orbit: 717 x 1491 km, 63.4° (Epoch: 25 November)

Event Time Altitude Azimuth Distance (km) Brightness Sun altitude
Rises 18:11:53 0° 224° (SW) 3,198 6.9 -17.6°
Reaches altitude 10° 18:14:07 10° 226° (SW) 2,330 6.1 -17.9°
Maximum altitude 18:19:26 76° 313° (NW) 895 3.4 -18.8°
Enters shadow 18:25:06 13° 38° (NE) 2,507 5.3 -19.8°
